User: anonymous   Login
Location: Unspecified
(0.0000°N, 0.0000°E)
Time: 18:54:11
(UTC+00:00)
Language:

ATHENOXAT 1 - Orbit

View from above orbital plane
View from above orbital plane
View from above satellite
View from above satellite

Ground track
Ground track

The orbit data is extracted from the following two-line orbital elements,

1 41168U 15077C   19341.48730213  .00001672  00000-0  52510-4 0  9999
2 41168  14.9893  36.7757 0011515 323.2658  36.6873 15.13964611220052
Epoch (UTC): 07 December 2019 11:41:42
Eccentricity: 0.0011515
inclination: 14.9893°
perigee height: 516 km
apogee height: 532 km
right ascension of ascending node: 36.7757°
argument of perigee: 323.2658°
revolutions per day: 15.13964611
mean anomaly at epoch: 36.6873°
orbit number at epoch: 22005

The dashed part of the orbit path shows where the satellite is in the earth's shadow,  

DLR